Back to catalog

JB-3 C

AliveMilitarySSO
NORAD 28470·PAYLOAD·🇨🇳 China

Launched Nov 6, 2004 from Taiyuan Satellite Launch Center

Loading…

Next Passes (next 24 hours)

TLE

FreshSource: Space-Track

Epoch: Sep 14, 2026, 08:28 UTC

1 28470U 04044A   26257.35318095  .00003032  00000-0  14272-3 0  9996
2 28470  97.2890  47.7926 0031255 268.2781  91.4874 15.19870762201320

Track JB-3 C in real time with AllMySat

Download on the App Store